TimeCST,TemperatureF,Dew PointF,Humidity,Sea Level PressureIn,VisibilityMPH,Wind Direction,Wind SpeedMPH,Gust SpeedMPH,PrecipitationIn,Events,Conditions,WindDirDegrees,DateUTC
12:15 AM,21.2,19.4,93,30.39,10.0,Calm,Calm,-,N/A,,Clear,0,2013-01-04 06:15:00
12:35 AM,19.4,19.4,100,30.39,10.0,Calm,Calm,-,N/A,,Clear,0,2013-01-04 06:35:00
12:55 AM,19.4,19.4,100,30.39,10.0,Calm,Calm,-,N/A,,Clear,0,2013-01-04 06:55:00
1:15 AM,19.4,17.6,93,30.39,10.0,Calm,Calm,-,N/A,,Clear,0,2013-01-04 07:15:00
1:35 AM,19.4,17.6,93,30.39,10.0,Calm,Calm,-,N/A,,Clear,0,2013-01-04 07:35:00
1:55 AM,17.6,17.6,100,30.40,10.0,Calm,Calm,-,N/A,,Unknown,0,2013-01-04 07:55:00
2:15 AM,17.6,17.6,100,30.40,10.0,Calm,Calm,-,N/A,,Clear,0,2013-01-04 08:15:00
2:55 AM,17.6,15.8,93,30.40,10.0,Calm,Calm,-,N/A,,Clear,0,2013-01-04 08:55:00
3:15 AM,17.6,14.0,86,30.40,10.0,Calm,Calm,-,N/A,,Clear,0,2013-01-04 09:15:00
5:55 AM,15.8,14.0,93,30.37,10.0,Calm,Calm,-,N/A,,Unknown,0,2013-01-04 11:55:00
6:15 AM,15.8,14.0,93,30.37,10.0,Calm,Calm,-,N/A,,Clear,0,2013-01-04 12:15:00
6:35 AM,14.0,14.0,100,30.37,10.0,Calm,Calm,-,N/A,,Clear,0,2013-01-04 12:35:00
6:55 AM,14.0,12.2,93,30.37,10.0,Calm,Calm,-,N/A,,Clear,0,2013-01-04 12:55:00
7:15 AM,15.8,14.0,93,30.37,7.0,Calm,Calm,-,N/A,,Clear,0,2013-01-04 13:15:00
7:35 AM,15.8,14.0,93,30.37,7.0,Calm,Calm,-,N/A,,Clear,0,2013-01-04 13:35:00
7:55 AM,17.6,15.8,93,30.37,7.0,Calm,Calm,-,N/A,,Clear,0,2013-01-04 13:55:00
8:15 AM,17.6,15.8,93,30.37,7.0,Calm,Calm,-,N/A,,Unknown,0,2013-01-04 14:15:00
8:35 AM,19.4,19.4,100,30.36,7.0,Calm,Calm,-,N/A,,Clear,0,2013-01-04 14:35:00
8:55 AM,23.0,21.2,93,30.35,7.0,Calm,Calm,-,N/A,,Clear,0,2013-01-04 14:55:00
9:15 AM,26.6,23.0,86,30.35,10.0,South,3.5,-,N/A,,Clear,190,2013-01-04 15:15:00
9:35 AM,28.4,23.0,80,30.36,10.0,SSW,5.8,-,N/A,,Clear,200,2013-01-04 15:35:00
9:55 AM,30.2,24.8,80,30.36,10.0,SSW,6.9,-,N/A,,Clear,210,2013-01-04 15:55:00
10:15 AM,32.0,26.6,80,30.38,10.0,SSW,8.1,-,N/A,,Clear,200,2013-01-04 16:15:00
10:35 AM,32.0,26.6,80,30.38,10.0,SSW,11.5,-,N/A,,Clear,210,2013-01-04 16:35:00
10:55 AM,33.8,24.8,70,30.36,10.0,SW,10.4,16.1,N/A,,Clear,220,2013-01-04 16:55:00
11:15 AM,35.6,24.8,65,30.35,10.0,SSW,9.2,-,N/A,,Clear,210,2013-01-04 17:15:00
11:35 AM,35.6,24.8,65,30.35,10.0,SW,11.5,-,N/A,,Clear,230,2013-01-04 17:35:00
11:55 AM,37.4,24.8,60,30.33,10.0,SW,10.4,20.7,N/A,,Clear,230,2013-01-04 17:55:00
12:15 PM,37.4,24.8,60,30.32,10.0,SW,15.0,20.7,N/A,,Unknown,230,2013-01-04 18:15:00
12:55 PM,39.2,24.8,56,30.30,10.0,WSW,11.5,-,N/A,,Clear,240,2013-01-04 18:55:00
1:15 PM,39.2,24.8,56,30.30,10.0,WSW,11.5,-,N/A,,Clear,250,2013-01-04 19:15:00
1:35 PM,41.0,24.8,53,30.30,10.0,SW,11.5,-,N/A,,Clear,220,2013-01-04 19:35:00
1:55 PM,41.0,24.8,53,30.29,10.0,WSW,6.9,-,N/A,,Clear,250,2013-01-04 19:55:00
2:15 PM,41.0,24.8,53,30.29,10.0,SW,8.1,-,N/A,,Clear,230,2013-01-04 20:15:00
2:35 PM,41.0,26.6,57,30.28,10.0,SW,9.2,-,N/A,,Clear,220,2013-01-04 20:35:00
2:55 PM,41.0,26.6,57,30.27,10.0,WSW,5.8,-,N/A,,Clear,240,2013-01-04 20:55:00
3:15 PM,41.0,26.6,57,30.27,10.0,SSW,8.1,-,N/A,,Unknown,200,2013-01-04 21:15:00
3:35 PM,41.0,26.6,57,30.27,10.0,SSW,10.4,-,N/A,,Clear,200,2013-01-04 21:35:00
3:55 PM,41.0,26.6,57,30.27,10.0,SW,9.2,-,N/A,,Clear,220,2013-01-04 21:55:00
4:15 PM,41.0,26.6,57,30.27,10.0,SSW,4.6,-,N/A,,Clear,210,2013-01-04 22:15:00
4:35 PM,41.0,26.6,57,30.26,10.0,SSW,4.6,-,N/A,,Clear,210,2013-01-04 22:35:00
4:55 PM,41.0,26.6,57,30.26,10.0,SSW,3.5,-,N/A,,Clear,200,2013-01-04 22:55:00
5:15 PM,37.4,26.6,65,30.26,10.0,SSW,3.5,-,N/A,,Clear,210,2013-01-04 23:15:00
5:35 PM,37.4,26.6,65,30.27,10.0,Calm,Calm,-,N/A,,Clear,0,2013-01-04 23:35:00
5:55 PM,35.6,26.6,70,30.27,10.0,Calm,Calm,-,N/A,,Clear,0,2013-01-04 23:55:00
6:15 PM,35.6,26.6,70,30.27,10.0,South,3.5,-,N/A,,Clear,180,2013-01-05 00:15:00
6:55 PM,32.0,26.6,80,30.26,10.0,Calm,Calm,-,N/A,,Clear,0,2013-01-05 00:55:00
7:15 PM,33.8,26.6,75,30.26,10.0,Calm,Calm,-,N/A,,Clear,0,2013-01-05 01:15:00
7:35 PM,33.8,26.6,75,30.26,10.0,Calm,Calm,-,N/A,,Clear,0,2013-01-05 01:35:00
7:55 PM,33.8,26.6,75,30.26,10.0,Calm,Calm,-,N/A,,Clear,0,2013-01-05 01:55:00
8:15 PM,33.8,28.4,81,30.25,10.0,Calm,Calm,-,N/A,,Clear,0,2013-01-05 02:15:00
8:35 PM,32.0,26.6,80,30.25,10.0,Calm,Calm,-,N/A,,Clear,0,2013-01-05 02:35:00
8:55 PM,32.0,26.6,80,30.25,10.0,Calm,Calm,-,N/A,,Clear,0,2013-01-05 02:55:00
9:15 PM,32.0,26.6,80,30.25,10.0,Calm,Calm,-,N/A,,Clear,0,2013-01-05 03:15:00
9:35 PM,30.2,26.6,86,30.25,10.0,Calm,Calm,-,N/A,,Clear,0,2013-01-05 03:35:00
9:55 PM,28.4,24.8,86,30.25,10.0,Calm,Calm,-,N/A,,Clear,0,2013-01-05 03:55:00
10:15 PM,30.2,26.6,86,30.24,10.0,Calm,Calm,-,N/A,,Clear,0,2013-01-05 04:15:00
10:35 PM,32.0,26.6,80,30.24,10.0,Calm,Calm,-,N/A,,Unknown,0,2013-01-05 04:35:00
10:55 PM,32.0,26.6,80,30.24,10.0,SSE,3.5,-,N/A,,Clear,160,2013-01-05 04:55:00
11:15 PM,32.0,26.6,80,30.24,10.0,SSE,3.5,-,N/A,,Clear,160,2013-01-05 05:15:00
11:35 PM,32.0,26.6,80,30.24,10.0,SSE,3.5,-,N/A,,Clear,150,2013-01-05 05:35:00
11:55 PM,32.0,26.6,80,30.23,10.0,Calm,Calm,-,N/A,,Clear,0,2013-01-05 05:55:00